Regional Weather Roundup
Issued by NWS

Home | Current Version | Previous Version | Graphics & Text | Print | Product List | Glossary On
Versions: 1 2 3 4 5 6 7 8 9 10 11 12 13 14 15 16 17 18 19 20 21 22 23 24 25 26 27 28 29 30 31 32 33 34 35 36 37 38 39 40 41 42 43 44 45 46 47 48 49 50
000
ASUS43 KLMK 311602
RWRKY
KENTUCKY REGIONAL WEATHER ROUNDUP
NATIONAL WEATHER SERVICE LOUISVILLE KY
1200 PM EDT FRI JUL 31 2015

NOTE "FAIR" INDICATES FEW OR NO CLOUDS BELOW 12,000 FEET
WITH NO SIGNIFICANT WEATHER AND/OR OBSTRUCTIONS TO VISIBILITY.

KYZ001>023-026-027-061>063-070>075-311700-
WESTERN AND SOUTH CENTRAL KENTUCKY

CITY           SKY/WX    TMP DP  RH WIND       PRES   REMARKS
PADUCAH        SUNNY     86  68  54 NE8       30.11S
HENDERSON      SUNNY     82  70  65 N6        30.09S
OWENSBORO      SUNNY     85  69  58 NE6       30.10S
HOPKINSVILLE   SUNNY     82  69  63 N6        30.10F
BOWLING GREEN  SUNNY     85  63  47 E7        30.10S
GLASGOW        NOT AVBL
$$

KYZ024-025-028>034-038-045-046-053-311700-
NORTH CENTRAL KENTUCKY

CITY           SKY/WX    TMP DP  RH WIND       PRES   REMARKS
LOUISVILLE/SDF MOSUNNY   86  63  45 CALM      30.07F
LOUISVILLE/LOU SUNNY     85  64  49 CALM      30.08F
FORT KNOX      SUNNY     83  63  51 VRB1      30.08S
$$

KYZ035>037-039>044-047>052-055>060-089>105-311700-
NORTHEAST KENTUCKY

CITY           SKY/WX    TMP DP  RH WIND       PRES   REMARKS
LEXINGTON      SUNNY     83  62  49 NW3       30.10S
COVINGTON      SUNNY     83  64  52 W7G16     30.07S
FRANKFORT      SUNNY     84  62  47 NW6       30.08S
$$

KYZ054-064>069-076>088-106>120-311700-
SOUTHEAST KENTUCKY

CITY           SKY/WX    TMP DP  RH WIND       PRES   REMARKS
JACKSON        SUNNY     80  62  54 VRB3      30.11S
LONDON         SUNNY     83  55  38 N7        30.11S
SOMERSET       NOT AVBL
MIDDLESBORO    SUNNY     81  61  50 NE9       30.11S
MONTICELLO     SUNNY     84  62  47 N3        30.14S
$$




USA.gov is the U.S. government's official web portal to all federal, state and local government web resources and services.